Time,TemperatureF,DewpointF,PressureIn,WindDirection,WindDirectionDegrees,WindSpeedMPH,WindSpeedGustMPH,Humidity,HourlyPrecipIn,Conditions,Clouds,dailyrainin,SoftwareType,DateUTC
2013-02-03 00:02:00,35.0,31.0,30.11,West,261,3.0,8.0,85,0.00,,,0.00,,2013-02-03 06:02:00,
2013-02-03 00:11:00,35.0,31.0,30.11,West,261,3.0,8.0,85,0.00,,,0.00,,2013-02-03 06:11:00,
2013-02-03 00:21:00,35.0,31.0,30.11,WSW,241,2.0,6.0,85,0.00,,,0.00,,2013-02-03 06:21:00,
2013-02-03 00:32:00,34.0,30.0,30.10,West,263,4.0,6.0,85,0.00,,,0.00,,2013-02-03 06:32:00,
2013-02-03 00:41:00,34.0,30.0,30.10,West,263,4.0,6.0,85,0.00,,,0.00,,2013-02-03 06:41:00,
2013-02-03 00:52:00,35.0,31.0,30.09,West,263,6.0,6.0,84,0.00,,,0.00,,2013-02-03 06:52:00,
2013-02-03 01:01:00,35.0,31.0,30.09,WSW,242,3.0,6.0,84,0.00,,,0.00,,2013-02-03 07:01:00,
2013-02-03 01:11:00,35.0,31.0,30.09,WSW,242,3.0,6.0,84,0.00,,,0.00,,2013-02-03 07:11:00,
2013-02-03 01:21:00,35.0,30.0,30.07,SW,235,1.0,4.0,83,0.00,,,0.00,,2013-02-03 07:21:00,
2013-02-03 01:31:00,35.0,31.0,30.07,SW,229,2.0,5.0,84,0.00,,,0.00,,2013-02-03 07:31:00,
2013-02-03 01:41:00,35.0,31.0,30.07,SW,229,2.0,5.0,84,0.00,,,0.00,,2013-02-03 07:41:00,
2013-02-03 01:52:00,35.0,31.0,30.07,SW,229,5.0,6.0,84,0.00,,,0.00,,2013-02-03 07:52:00,
2013-02-03 02:01:00,35.0,31.0,30.06,SW,223,3.0,7.0,84,0.00,,,0.00,,2013-02-03 08:01:00,
2013-02-03 02:11:00,35.0,31.0,30.06,SW,223,3.0,7.0,84,0.00,,,0.00,,2013-02-03 08:11:00,
2013-02-03 02:22:00,35.0,30.0,30.07,WSW,248,5.0,8.0,83,0.00,,,0.00,,2013-02-03 08:22:00,
2013-02-03 02:32:00,35.0,31.0,30.07,West,263,4.0,5.0,84,0.00,,,0.00,,2013-02-03 08:32:00,
2013-02-03 02:41:00,35.0,31.0,30.07,West,263,4.0,5.0,84,0.00,,,0.00,,2013-02-03 08:41:00,
2013-02-03 02:52:00,35.0,31.0,30.06,West,265,1.0,3.0,86,0.00,,,0.00,,2013-02-03 08:52:00,
2013-02-03 03:02:00,35.0,31.0,30.04,SSW,192,3.0,4.0,86,0.00,,,0.00,,2013-02-03 09:02:00,
2013-02-03 03:11:00,35.0,31.0,30.04,SSW,192,3.0,4.0,86,0.00,,,0.00,,2013-02-03 09:11:00,
2013-02-03 03:21:00,35.0,32.0,30.02,South,183,4.0,6.0,88,0.00,,,0.00,,2013-02-03 09:21:00,
2013-02-03 03:31:00,34.0,31.0,30.03,SW,218,4.0,5.0,88,0.00,,,0.00,,2013-02-03 09:31:00,
2013-02-03 03:41:00,34.0,31.0,30.03,SW,218,4.0,5.0,88,0.00,,,0.00,,2013-02-03 09:41:00,
2013-02-03 03:52:00,35.0,32.0,30.02,SSW,200,2.0,6.0,87,0.00,,,0.00,,2013-02-03 09:52:00,
2013-02-03 04:01:00,34.0,31.0,30.01,South,174,2.0,4.0,88,0.00,,,0.00,,2013-02-03 10:01:00,
2013-02-03 04:11:00,34.0,31.0,30.01,South,174,2.0,4.0,88,0.00,,,0.00,,2013-02-03 10:11:00,
2013-02-03 04:21:00,34.0,31.0,30.00,SSE,150,3.0,4.0,90,0.00,,,0.00,,2013-02-03 10:21:00,
2013-02-03 04:31:00,34.0,31.0,30.01,SSE,150,3.0,3.0,90,0.00,,,0.00,,2013-02-03 10:31:00,
2013-02-03 04:42:00,34.0,31.0,30.01,SSE,150,3.0,3.0,90,0.00,,,0.00,,2013-02-03 10:42:00,
2013-02-03 04:52:00,34.0,31.0,30.00,SSE,150,0.0,2.0,90,0.00,,,0.00,,2013-02-03 10:52:00,
2013-02-03 05:02:00,34.0,32.0,30.00,NE,49,2.0,4.0,91,0.00,,,0.00,,2013-02-03 11:02:00,
2013-02-03 05:11:00,34.0,32.0,30.00,NE,49,2.0,4.0,91,0.00,,,0.00,,2013-02-03 11:11:00,
2013-02-03 05:22:00,34.0,32.0,29.99,NE,49,0.0,1.0,91,0.00,,,0.00,,2013-02-03 11:22:00,
2013-02-03 05:32:00,33.0,31.0,29.99,South,191,3.0,4.0,91,0.00,,,0.00,,2013-02-03 11:32:00,
2013-02-03 05:42:00,33.0,31.0,29.99,South,191,3.0,4.0,91,0.00,,,0.00,,2013-02-03 11:42:00,
2013-02-03 05:52:00,33.0,31.0,29.98,WSW,240,5.0,6.0,91,0.00,,,0.00,,2013-02-03 11:52:00,
2013-02-03 06:02:00,34.0,31.0,29.99,SW,233,0.0,5.0,88,0.00,,,0.00,,2013-02-03 12:02:00,
2013-02-03 06:11:00,34.0,31.0,29.99,SW,233,0.0,5.0,88,0.00,,,0.00,,2013-02-03 12:11:00,
2013-02-03 06:22:00,33.0,30.0,30.00,WSW,244,2.0,2.0,89,0.00,,,0.00,,2013-02-03 12:22:00,
2013-02-03 06:32:00,32.0,29.0,30.00,WSW,257,2.0,3.0,90,0.00,,,0.00,,2013-02-03 12:32:00,
2013-02-03 06:42:00,32.0,29.0,30.00,WSW,257,2.0,3.0,90,0.00,,,0.00,,2013-02-03 12:42:00,
2013-02-03 06:53:00,32.0,30.0,30.00,West,270,3.0,4.0,91,0.00,,,0.00,,2013-02-03 12:53:00,
2013-02-03 07:03:00,32.0,30.0,30.01,West,267,4.0,6.0,91,0.00,,,0.00,,2013-02-03 13:03:00,
2013-02-03 07:11:00,32.0,30.0,30.01,West,267,4.0,6.0,91,0.00,,,0.00,,2013-02-03 13:11:00,
2013-02-03 07:21:00,32.0,30.0,30.01,West,273,5.0,7.0,91,0.00,,,0.00,,2013-02-03 13:21:00,
2013-02-03 07:32:00,33.0,31.0,30.02,West,271,6.0,11.0,91,0.00,,,0.00,,2013-02-03 13:32:00,
2013-02-03 07:42:00,33.0,31.0,30.02,West,271,6.0,11.0,91,0.00,,,0.00,,2013-02-03 13:42:00,
2013-02-03 07:52:00,35.0,32.0,30.03,WNW,288,6.0,12.0,88,0.00,,,0.00,,2013-02-03 13:52:00,
2013-02-03 08:02:00,36.0,33.0,30.04,WNW,302,8.0,12.0,87,0.00,,,0.00,,2013-02-03 14:02:00,
2013-02-03 08:11:00,36.0,33.0,30.04,WNW,302,8.0,12.0,87,0.00,,,0.00,,2013-02-03 14:11:00,
2013-02-03 08:21:00,37.0,33.0,30.04,West,263,9.0,11.0,85,0.00,,,0.00,,2013-02-03 14:21:00,
2013-02-03 08:32:00,38.0,34.0,30.05,WNW,290,6.0,12.0,85,0.00,,,0.00,,2013-02-03 14:32:00,
2013-02-03 08:42:00,38.0,34.0,30.05,WNW,290,6.0,12.0,85,0.00,,,0.00,,2013-02-03 14:42:00,
2013-02-03 08:52:00,39.0,34.0,30.06,WNW,287,7.0,13.0,83,0.00,,,0.00,,2013-02-03 14:52:00,
2013-02-03 09:03:00,39.0,34.0,30.06,WNW,295,12.0,18.0,83,0.00,,,0.00,,2013-02-03 15:03:00,
2013-02-03 09:11:00,39.0,34.0,30.06,WNW,295,12.0,18.0,83,0.00,,,0.00,,2013-02-03 15:11:00,
2013-02-03 09:22:00,39.0,34.0,30.06,WNW,302,11.0,19.0,81,0.00,,,0.00,,2013-02-03 15:22:00,
2013-02-03 09:32:00,40.0,33.0,30.06,NW,310,21.0,21.0,77,0.00,,,0.00,,2013-02-03 15:32:00,
2013-02-03 09:42:00,40.0,33.0,30.06,NW,310,21.0,21.0,77,0.00,,,0.00,,2013-02-03 15:42:00,
2013-02-03 09:52:00,40.0,32.0,30.06,NW,310,12.0,22.0,74,0.00,,,0.00,,2013-02-03 15:52:00,
2013-02-03 10:02:00,40.0,32.0,30.07,NNW,329,13.0,21.0,72,0.00,,,0.00,,2013-02-03 16:02:00,
2013-02-03 10:11:00,40.0,32.0,30.07,NNW,329,13.0,21.0,72,0.00,,,0.00,,2013-02-03 16:11:00,
2013-02-03 10:22:00,41.0,33.0,30.08,NW,318,10.0,20.0,72,0.00,,,0.00,,2013-02-03 16:22:00,
2013-02-03 10:32:00,41.0,32.0,30.09,NNW,329,16.0,24.0,70,0.00,,,0.00,,2013-02-03 16:32:00,
2013-02-03 10:41:00,41.0,32.0,30.09,NNW,329,16.0,24.0,70,0.00,,,0.00,,2013-02-03 16:41:00,
2013-02-03 10:52:00,39.0,31.0,30.09,NNW,334,17.0,22.0,73,0.00,,,0.00,,2013-02-03 16:52:00,
2013-02-03 11:02:00,40.0,33.0,30.10,NW,325,12.0,19.0,75,0.00,,,0.00,,2013-02-03 17:02:00,
2013-02-03 11:11:00,40.0,33.0,30.10,NW,325,12.0,19.0,75,0.00,,,0.00,,2013-02-03 17:11:00,
2013-02-03 11:21:00,39.0,31.0,30.10,NNW,336,13.0,21.0,72,0.00,,,0.00,,2013-02-03 17:21:00,
2013-02-03 11:32:00,40.0,32.0,30.11,NW,323,11.0,19.0,73,0.00,,,0.00,,2013-02-03 17:32:00,
2013-02-03 11:42:00,40.0,32.0,30.11,NW,323,11.0,19.0,73,0.00,,,0.00,,2013-02-03 17:42:00,
2013-02-03 11:52:00,39.0,31.0,30.11,WNW,300,15.0,21.0,73,0.00,,,0.00,,2013-02-03 17:52:00,
2013-02-03 12:02:00,39.0,31.0,30.11,NW,313,14.0,19.0,73,0.00,,,0.00,,2013-02-03 18:02:00,
2013-02-03 12:12:00,39.0,31.0,30.11,NW,313,14.0,19.0,73,0.00,,,0.00,,2013-02-03 18:12:00,
2013-02-03 12:23:00,38.0,31.0,30.11,NNW,340,10.0,22.0,75,0.00,,,0.00,,2013-02-03 18:23:00,
2013-02-03 12:32:00,38.0,31.0,30.12,NW,319,11.0,16.0,75,0.00,,,0.00,,2013-02-03 18:32:00,
2013-02-03 12:42:00,38.0,31.0,30.12,NW,319,11.0,16.0,75,0.00,,,0.00,,2013-02-03 18:42:00,
2013-02-03 12:52:00,38.0,31.0,30.12,NW,316,18.0,18.0,75,0.00,,,0.00,,2013-02-03 18:52:00,
2013-02-03 13:02:00,37.0,30.0,30.12,NNW,333,9.0,17.0,76,0.00,,,0.00,,2013-02-03 19:02:00,
2013-02-03 13:11:00,37.0,30.0,30.12,NNW,333,9.0,17.0,76,0.00,,,0.00,,2013-02-03 19:11:00,
2013-02-03 13:22:00,38.0,31.0,30.12,NNW,335,11.0,17.0,75,0.00,,,0.00,,2013-02-03 19:22:00,
2013-02-03 13:32:00,38.0,30.0,30.12,NNW,333,8.0,16.0,74,0.00,,,0.00,,2013-02-03 19:32:00,
2013-02-03 13:41:00,38.0,30.0,30.12,NNW,333,8.0,16.0,74,0.00,,,0.00,,2013-02-03 19:41:00,
2013-02-03 13:52:00,38.0,29.0,30.12,NW,314,21.0,21.0,69,0.00,,,0.00,,2013-02-03 19:52:00,
2013-02-03 14:01:00,39.0,30.0,30.12,WNW,294,9.0,15.0,71,0.00,,,0.00,,2013-02-03 20:01:00,
2013-02-03 14:12:00,39.0,30.0,30.12,WNW,294,9.0,15.0,71,0.00,,,0.00,,2013-02-03 20:12:00,
2013-02-03 14:21:00,39.0,30.0,30.12,North,351,12.0,19.0,69,0.00,,,0.00,,2013-02-03 20:21:00,
2013-02-03 14:32:00,39.0,30.0,30.12,NW,319,11.0,15.0,69,0.00,,,0.00,,2013-02-03 20:32:00,
2013-02-03 14:42:00,39.0,30.0,30.12,NW,319,11.0,15.0,69,0.00,,,0.00,,2013-02-03 20:42:00,
2013-02-03 14:52:00,39.0,30.0,30.12,NW,316,10.0,18.0,70,0.00,,,0.00,,2013-02-03 20:52:00,
2013-02-03 15:03:00,40.0,31.0,30.13,North,5,11.0,16.0,69,0.00,,,0.00,,2013-02-03 21:03:00,
2013-02-03 15:11:00,40.0,31.0,30.13,North,5,11.0,16.0,69,0.00,,,0.00,,2013-02-03 21:11:00,
2013-02-03 15:21:00,39.0,30.0,30.13,NNW,329,11.0,16.0,70,0.00,,,0.00,,2013-02-03 21:21:00,
2013-02-03 15:32:00,40.0,30.0,30.13,NW,320,17.0,18.0,67,0.00,,,0.00,,2013-02-03 21:32:00,
2013-02-03 15:42:00,40.0,30.0,30.13,NW,320,17.0,18.0,67,0.00,,,0.00,,2013-02-03 21:42:00,
2013-02-03 15:52:00,41.0,31.0,30.13,NW,321,8.0,15.0,66,0.00,,,0.00,,2013-02-03 21:52:00,
2013-02-03 16:01:00,41.0,28.0,30.13,NW,314,13.0,14.0,60,0.00,,,0.00,,2013-02-03 22:01:00,
2013-02-03 16:11:00,41.0,28.0,30.13,NW,314,13.0,14.0,60,0.00,,,0.00,,2013-02-03 22:11:00,
2013-02-03 16:21:00,41.0,28.0,30.12,NNW,336,7.0,17.0,60,0.00,,,0.00,,2013-02-03 22:21:00,
2013-02-03 16:32:00,40.0,28.0,30.13,WNW,298,9.0,12.0,62,0.00,,,0.00,,2013-02-03 22:32:00,
2013-02-03 16:41:00,40.0,28.0,30.13,WNW,298,9.0,12.0,62,0.00,,,0.00,,2013-02-03 22:41:00,
2013-02-03 16:52:00,40.0,28.0,30.12,NNW,344,9.0,14.0,62,0.00,,,0.00,,2013-02-03 22:52:00,
2013-02-03 17:01:00,39.0,27.0,30.14,NNW,345,4.0,10.0,63,0.00,,,0.00,,2013-02-03 23:01:00,
2013-02-03 17:12:00,39.0,27.0,30.14,NNW,345,4.0,10.0,63,0.00,,,0.00,,2013-02-03 23:12:00,
2013-02-03 17:22:00,38.0,27.0,30.14,NNW,347,5.0,7.0,65,0.00,,,0.00,,2013-02-03 23:22:00,
2013-02-03 17:32:00,37.0,27.0,30.14,NNW,346,4.0,7.0,67,0.00,,,0.00,,2013-02-03 23:32:00,
2013-02-03 17:41:00,37.0,27.0,30.14,NNW,346,4.0,7.0,67,0.00,,,0.00,,2013-02-03 23:41:00,
2013-02-03 17:52:00,36.0,27.0,30.14,NNW,331,4.0,6.0,69,0.00,,,0.00,,2013-02-03 23:52:00,
2013-02-03 18:01:00,35.0,26.0,30.15,NNW,348,5.0,8.0,70,0.00,,,0.00,,2013-02-04 00:01:00,
2013-02-03 18:11:00,35.0,26.0,30.15,NNW,348,5.0,8.0,70,0.00,,,0.00,,2013-02-04 00:11:00,
2013-02-03 18:22:00,34.0,26.0,30.14,North,360,3.0,6.0,73,0.00,,,0.00,,2013-02-04 00:22:00,
2013-02-03 18:31:00,33.0,26.0,30.15,North,5,7.0,8.0,75,0.00,,,0.00,,2013-02-04 00:31:00,
2013-02-03 18:41:00,33.0,26.0,30.15,North,5,7.0,8.0,75,0.00,,,0.00,,2013-02-04 00:41:00,
2013-02-03 18:52:00,34.0,27.0,30.16,North,355,7.0,9.0,74,0.00,,,0.00,,2013-02-04 00:52:00,
2013-02-03 19:01:00,33.0,27.0,30.16,NNE,17,6.0,11.0,79,0.00,,,0.00,,2013-02-04 01:01:00,
2013-02-03 19:11:00,33.0,27.0,30.16,NNE,17,6.0,11.0,79,0.00,,,0.00,,2013-02-04 01:11:00,
2013-02-03 19:21:00,32.0,27.0,30.16,NE,42,7.0,9.0,81,0.00,,,0.00,,2013-02-04 01:21:00,
2013-02-03 19:31:00,31.0,26.0,30.16,NNE,32,5.0,9.0,83,0.00,,,0.00,,2013-02-04 01:31:00,
2013-02-03 19:41:00,31.0,26.0,30.16,NNE,32,5.0,9.0,83,0.00,,,0.00,,2013-02-04 01:41:00,
2013-02-03 19:52:00,30.0,25.0,30.16,NE,34,5.0,7.0,83,0.00,,,0.00,,2013-02-04 01:52:00,
2013-02-03 20:02:00,30.0,25.0,30.16,NE,51,3.0,6.0,83,0.00,,,0.00,,2013-02-04 02:02:00,
2013-02-03 20:11:00,30.0,25.0,30.16,NE,51,3.0,6.0,83,0.00,,,0.00,,2013-02-04 02:11:00,
2013-02-03 20:21:00,30.0,25.0,30.16,NE,52,3.0,5.0,82,0.00,,,0.00,,2013-02-04 02:21:00,
2013-02-03 20:31:00,29.0,25.0,30.16,NE,40,3.0,4.0,83,0.00,,,0.00,,2013-02-04 02:31:00,
2013-02-03 20:41:00,29.0,25.0,30.16,NE,40,3.0,4.0,83,0.00,,,0.00,,2013-02-04 02:41:00,
2013-02-03 20:52:00,29.0,24.0,30.16,NE,45,2.0,4.0,82,0.00,,,0.00,,2013-02-04 02:52:00,
2013-02-03 21:02:00,29.0,24.0,30.17,NE,45,0.0,1.0,82,0.00,,,0.00,,2013-02-04 03:02:00,
2013-02-03 21:11:00,29.0,24.0,30.17,NE,45,0.0,1.0,82,0.00,,,0.00,,2013-02-04 03:11:00,
2013-02-03 21:21:00,29.0,24.0,30.17,NE,45,0.0,0.0,81,0.00,,,0.00,,2013-02-04 03:21:00,
2013-02-03 21:32:00,28.0,24.0,30.17,NE,45,0.0,0.0,83,0.00,,,0.00,,2013-02-04 03:32:00,
2013-02-03 21:41:00,28.0,24.0,30.17,NE,45,0.0,0.0,83,0.00,,,0.00,,2013-02-04 03:41:00,
2013-02-03 21:51:00,28.0,24.0,30.16,ENE,76,2.0,2.0,84,0.00,,,0.00,,2013-02-04 03:51:00,
2013-02-03 22:01:00,27.0,23.0,30.16,ENE,76,0.0,2.0,85,0.00,,,0.00,,2013-02-04 04:01:00,
2013-02-03 22:11:00,27.0,23.0,30.16,ENE,76,0.0,2.0,85,0.00,,,0.00,,2013-02-04 04:11:00,
2013-02-03 22:21:00,27.0,24.0,30.15,ENE,76,0.0,1.0,87,0.00,,,0.00,,2013-02-04 04:21:00,
2013-02-03 22:32:00,27.0,23.0,30.15,ENE,76,1.0,2.0,86,0.00,,,0.00,,2013-02-04 04:32:00,
2013-02-03 22:41:00,27.0,23.0,30.15,ENE,76,1.0,2.0,86,0.00,,,0.00,,2013-02-04 04:41:00,
2013-02-03 22:52:00,27.0,23.0,30.15,ESE,106,2.0,3.0,86,0.00,,,0.00,,2013-02-04 04:52:00,
2013-02-03 23:03:00,27.0,23.0,30.14,SE,129,4.0,6.0,86,0.00,,,0.00,,2013-02-04 05:03:00,
2013-02-03 23:11:00,27.0,23.0,30.14,SE,129,4.0,6.0,86,0.00,,,0.00,,2013-02-04 05:11:00,
2013-02-03 23:22:00,26.0,23.0,30.14,SE,126,3.0,3.0,87,0.00,,,0.00,,2013-02-04 05:22:00,
2013-02-03 23:33:00,26.0,23.0,30.14,SE,129,3.0,3.0,88,0.00,,,0.00,,2013-02-04 05:33:00,
2013-02-03 23:42:00,26.0,23.0,30.14,SE,129,3.0,3.0,88,0.00,,,0.00,,2013-02-04 05:42:00,
2013-02-03 23:52:00,26.0,23.0,30.14,SE,134,0.0,2.0,88,0.00,,,0.00,,2013-02-04 05:52:00,